Flag for Germany Weather past 2 weeks in Meissen, Saxony, Germany

Now
46 °F

Passing clouds.


Feels Like: 42 °F
Forecast: 47 / 57 °F
Wind: 9 mph from South

Location: Dresden-Klotzsche

Current Time: Oct 26, 2014 at 1:52:09 AM

Latest Report: Oct 26, 2014 at 1:20 AM


Visibility: N/A

Pressure: 30.24 "Hg

Humidity: 87%

Dew point: 43 °F

Location of MeissenLocation

Historic Weather in Meissen — Graph

°F

Meissen temperature yesterday

Maximum temperature yesterday: 52 °F (at 1:20 PM)
Minimum temperature yesterday: 36 °F (at 6:50 AM)
Average temperature yesterday: 44 °F

Past Weeks' High & Low Weather Summary

 TemperatureHumidityPressure
High70 °F (Oct 19, 2:50 PM)100% (Oct 11, 9:50 PM)30.24 "Hg (Oct 11, 9:50 PM)
Low36 °F (Oct 25, 6:50 AM)55% (Oct 21, 1:50 PM)29.47 "Hg (Oct 21, 10:20 PM)
Average55 °F86%29.93 "Hg
* Reported Oct 11 12:20 AM — Oct 26 12:50 AM, Meissen, Weather by CustomWeather, © 2014

Note: Actual official high and low records may vary slightly from our data, if they occured in-between our weather recording intervals... More about our weather records

Advertising

Meissen weather history for previous 24 hours

 ConditionsComfort  
Time TempWeatherWind HumidityBarometerVisibility
12:50 AM
Oct 26
46 °FPassing clouds.9 mph87%30.21 "HgN/A
12:20 AM46 °FLight rain. Passing clouds.10 mph87%30.21 "Hg4 mi
11:50 PM
Oct 25
46 °FPassing clouds.9 mph87%30.21 "Hg4 mi
11:20 PM45 °FDrizzle. Fog.8 mph93%30.21 "Hg3 mi
10:50 PM46 °FPartly cloudy.9 mph87%30.21 "HgN/A
10:20 PM46 °FPartly cloudy.6 mph82%30.21 "HgN/A
9:50 PM46 °FPassing clouds.8 mph82%30.21 "HgN/A
9:20 PM45 °FClear.8 mph87%30.21 "Hg10 mi
8:50 PM45 °FClear.6 mph87%30.18 "Hg10 mi
8:20 PM45 °FClear.8 mph87%30.18 "Hg10 mi
7:50 PM45 °FClear.8 mph87%30.18 "Hg10 mi
7:20 PM45 °FClear.7 mph87%30.18 "Hg10 mi
6:50 PM46 °FSunny.8 mph82%30.18 "Hg10 mi
6:20 PM46 °FSunny.9 mph82%30.15 "Hg10 mi
5:50 PM46 °FSunny.9 mph82%30.15 "Hg10 mi
5:20 PM46 °FSunny.9 mph82%30.15 "Hg10 mi
4:50 PM46 °FSunny.12 mph82%30.15 "Hg10 mi
4:20 PM48 °FSunny.12 mph76%30.15 "Hg10 mi
3:50 PM48 °FSunny.14 mph76%30.15 "Hg10 mi
3:20 PM48 °FSunny.14 mph82%30.12 "Hg10 mi
2:50 PM48 °FSunny.14 mph82%30.12 "Hg10 mi
2:20 PM50 °FSunny.13 mph76%30.12 "Hg10 mi
1:50 PM50 °FPartly sunny.13 mph76%30.12 "HgN/A
1:20 PM52 °FPartly sunny.14 mph72%30.12 "HgN/A
12:50 PM50 °FSunny.12 mph76%30.12 "Hg10 mi
12:20 PM50 °FSunny.9 mph76%30.12 "Hg10 mi
11:50 AM50 °FSunny.9 mph76%30.15 "Hg10 mi
11:20 AM48 °FSunny.10 mph82%30.15 "Hg10 mi
10:50 AM46 °FClear.12 mph82%30.15 "Hg6 mi
10:20 AM45 °FClear.6 mph87%30.12 "Hg6 mi
9:50 AM43 °FClear.7 mph93%30.12 "Hg5 mi
9:20 AM41 °FClear.8 mph93%30.12 "Hg5 mi
8:50 AM39 °FClear.5 mph100%30.12 "Hg5 mi
8:20 AM37 °FClear.6 mph100%30.12 "Hg4 mi
7:50 AM37 °FFog.6 mph100%30.12 "Hg3 mi
7:20 AM36 °FFog.5 mph100%30.12 "Hg2 mi
6:50 AM36 °FClear.3 mph100%30.12 "Hg4 mi
6:20 AM37 °FClear.3 mph100%30.12 "Hg6 mi
5:50 AM37 °FClear.6 mph100%30.12 "Hg6 mi
5:20 AM37 °FClear.5 mph100%30.12 "Hg6 mi
4:50 AM37 °FClear.6 mph100%30.12 "Hg4 mi
4:20 AM39 °FClear.6 mph93%30.12 "Hg5 mi
3:50 AM39 °FClear.5 mph100%30.12 "Hg4 mi
3:20 AM41 °FFog.8 mph93%30.12 "Hg3 mi
2:50 AM41 °FFog.7 mph93%30.15 "Hg3 mi
2:20 AM41 °FFog.8 mph93%30.15 "Hg3 mi
1:50 AM39 °FFog.8 mph100%30.15 "Hg3 mi
1:20 AM39 °FFog.6 mph100%30.15 "Hg3 mi
Weather by CustomWeather, © 2014

See weather overviewHow to use our weather pages